Zurück zum Katalog

STARLINK-6029

AktivKommunikationVLEO
NORAD 56803·PAYLOAD·🇺🇸 United States

Gestartet May 31, 2023 von Vandenberg Space Force Base

Loading…

Nächste Überflüge (nächste 24 Stunden)

TLE

AktuellSource: CelesTrak SupGP

Epoche: Sep 14, 2026, 22:18 UTC

1 56803C 23078AN  26257.92965278  .00004643  00000+0  38899-3 0  2575
2 56803  70.0013 227.2848 0003508 268.2049 219.1267 14.98339888    15

Verfolge STARLINK-6029 in Echtzeit mit AllMySat

Download on the App Store